Location: ?????
(55.6500°N, 37.2500°E)
Time: 07:19:33
(UTC+00:00)

ARIANE 5 R/B - Pass Details

Date: 19 May 2025
Orbit: 614 x 648 km, 98.0° (Epoch: 12 June)

Event Time Altitude Azimuth Distance (km) Brightness Sun altitude
Exits shadow 21:23:53 14° 223° (SW) 1,711 4.4 -14.4°
Maximum altitude 21:26:28 24° 268° (W) 1,308 4.2 -14.4°
Drops below altitude 10° 21:30:00 10° 323° (NW) 2,007 6.0 -14.4°
Sets 21:32:36 0° 337° (NNW) 2,925 7.3 -14.4°
